Regional Weather Roundup
Issued by NWS

Home | Current Version | Previous Version | Text Only | Print | Product List | Glossary Off
Versions: 1 2 3 4 5 6 7 8 9 10 11 12 13 14 15 16 17 18 19 20 21 22 23 24 25 26 27 28 29 30 31 32 33 34 35 36 37 38 39 40 41 42 43 44 45 46 47 48 49 50

000
ASUS43 KMPX 221010
RWRMN
WEATHER ROUNDUP FOR MINNESOTA
NATIONAL WEATHER SERVICE TWIN CITIES/CHANHASSEN MN
400 AM CST SUN JAN 22 2017


NOTE: "FAIR" INDICATES FEW OR NO CLOUDS BELOW 12,000 FEET WITH NO
SIGNIFICANT WEATHER AND/OR OBSTRUCTIONS TO VISIBILITY. N/A MEANS
CURRENT SKY AND/OR WEATHER CONDITIONS ARE NOT AVAILABLE.

MNZ060>063-068>070-221100-
   Twin Cities Metro

CITY           SKY/WX    TMP DP  RH WIND       PRES   REMARKS
TWIN CITIES    CLOUDY    35  34  96 NW3       29.59R
ST PAUL        CLOUDY    35  35 100 NW6       29.60R WCI  30
CRYSTAL        CLOUDY    35  33  92 NW3       29.58S FOG
BLAINE         CLOUDY    36  36 100 NW5       29.59R FOG
LAKEVILLE        N/A     34  34 100 W3        29.58S FOG
EDEN PRAIRIE   FOG       35  35 100 NW3       29.58R VSB 1/2
SOUTH ST PAUL  CLOUDY    36  36  99 NW5       29.59R
LAKE ELMO      FOG       34  34 100 CALM      29.59S VSB 1
$$
MNZ001>005-007-008-013>017-022>024-027-028-221100-
   Northwest Minnesota

CITY           SKY/WX    TMP DP  RH WIND       PRES   REMARKS
BEMIDJI        CLOUDY    32  32 100 CALM      29.62R FOG
HALLOCK        DRZL/FOG  34  34 100 CALM      29.64R VSB 1/4
ROSEAU         HAZE      34  28  80 CALM      29.65R VSB 3/4
WARROAD        FOG       34  28  80 CALM      29.65R VSB 3/4
THIEF RVR FALL FOG       33  32  96 CALM      29.64R VSB 1/4
CROOKSTON      FOG       34  34 100 CALM      29.65R VSB 1/2
FOSSTON        FOG       30  30 100 CALM      29.63S VSB 1/2
DETROIT LAKES  FOG       34  34 100 NW3       29.63S VSB 3/4
MOORHEAD       FOG       34  34 100 CALM      29.65R VSB 1/4
PARK RAPIDS    CLOUDY    34  31  88 CALM      29.61R FOG
MAHNOMEN       FOG       32  32  99 CALM      29.63R VSB 1/2
$$
MNZ006-009>011-018-025>026-221100-
   North Central Minnesota

CITY           SKY/WX    TMP DP  RH WIND       PRES   REMARKS
BAUDETTE       FOG       33  32  96 CALM      29.63R VSB 1
FLAG ISLAND    FOG       34  32  93 CALM      29.64R VSB 1
INTL FALLS     FOG       34  33  96 CALM      29.62R VSB 1/2
WASKISH        FOG       34  34 100 CALM      29.63R VSB 1
BIG FORK       CLOUDY    34  34 100 CALM      29.62R FOG
LONGVILLE      CLOUDY    34  34 100 CALM      29.61R VSB 1/2
GRAND RAPIDS   FOG       33  33 100 NW5       29.62R VSB 1/2 WCI  29
CRANE LAKE     LGT RAIN  30  30 100 CALM      29.63S
ORR            LGT SNOW  32  30  93 CALM      29.58S
COOK           CLOUDY    34  34 100 CALM      29.61R
WALKER         FOG       33  33  99 CALM      29.61S VSB 1/2
$$
MNZ012-019>021-037-221100-
   Northeast Minnesota

CITY           SKY/WX    TMP DP  RH WIND       PRES   REMARKS
DULUTH         DRZL/FOG  34  33  96 N6        29.57S VSB 1   WCI  29
ELY            CLOUDY    34  34 100 CALM      29.59S FOG
HIBBING        CLOUDY    32  32 100 NW5       29.60R FOG     WCI  27
EVELETH        CLOUDY    35  35  99 CALM      29.61R
DULUTH HARBOR  CLOUDY    34  34 100 N8        29.60S FOG     WCI  27
TWO HARBORS    DRIZZLE   37  34  87 CALM      29.57S
SILVER BAY     LGT RAIN  36  36 100 N3        29.57R
GRAND MARAIS     N/A     37  34  89 NE5       29.59S
G MARAIS ARPRT CLOUDY    30  28  93 N6        29.56S WCI  24
$$
MNZ029>031-032-039>041-046>048-054>057-064-221100-
   West Central Minnesota

CITY           SKY/WX    TMP DP  RH WIND       PRES   REMARKS
FERGUS FALLS   MIX PCPN  34  34 100 W3        29.68R VSB 1/2
WHEATON        CLOUDY    39  39 100 W3        29.67R FOG
MORRIS         FOG       34  34 100 NW7       29.63R VSB 1/4 WCI  28
ALEXANDRIA     CLOUDY    33  33 100 W5        29.63R FOG     WCI  29
ELBOW LAKE     SNOW      32  32 100 NW6       29.64R VSB 1/2 WCI  26
WADENA         CLOUDY    34  34 100 CALM      29.61R FOG
GLENWOOD       CLOUDY    34  34 100 CALM      29.63R FOG
APPLETON       CLOUDY    36  34  93 N7        29.64R FOG
ORTONVILLE     CLOUDY    34  32  93 CALM      29.64R FOG
MADISON        CLOUDY    36  36 100 NW7       29.64R FOG
WILLMAR        CLOUDY    34  34 100 CALM      29.63R FOG
$$
MNZ033>034-036-042>043-049>051-058-059-221100-
   Central Minnesota

CITY           SKY/WX    TMP DP  RH WIND       PRES   REMARKS
ST CLOUD       CLOUDY    33  33 100 NW6       29.60R FOG     WCI  28
SAUK CENTRE    FOG       33  33 100 NW5       29.62R VSB 1/2 WCI  28
PAYNESVILLE    FOG       33  33 100 NW3       29.62R VSB 3/4
AITKIN         CLOUDY    36  34  93 CALM      29.59S FOG
PINE RIVER     CLOUDY    34  34 100 CALM      29.65S
BRAINERD       CLOUDY    33  33 100 N5        29.61S FOG     WCI  29
STAPLES        FOG       32  32 100 CALM      29.61S VSB 1/2
LONG PRAIRIE   SNOW      32  32 100 CALM      29.62R VSB 1/2
LITTLE FALLS   CLOUDY    32  32 100 CALM      29.62R FOG
LITCHFIELD     FOG       36  36 100 W3        29.61R VSB 3/4
BUFFALO        FOG       34  33  97 NW3       29.61R VSB 1
MAPLE LAKE     FOG       35  35 100 NW6       29.60S VSB 3/4 WCI  30
HUTCHINSON     FOG       34  35 100 NW5       29.62R VSB 1/2 WCI  30
$$
MNZ037-044-045-052-053-221100-
   East Central Minnesota

CITY           SKY/WX    TMP DP  RH WIND       PRES   REMARKS
PRINCETON      FOG       36  34  93 NW3       29.60S VSB 1
MORA           CLOUDY    34  32  93 N3        29.61S FOG
CAMBRIDGE      FOG       36  36 100 N3        29.58R VSB 3/4
RUSH CITY      CLOUDY    34  32  93 N5        29.59S FOG     WCI  30
MOOSE LAKE     CLOUDY    34  32  93 CALM      29.59R FOG
HINCKLEY       FOG       34  34 100 N6        29.60R VSB 3/4 WCI  29
CLOQUET        CLOUDY    34  34 100 N5        29.59R FOG     WCI  30
MCGREGOR       CLOUDY    34  34 100 CALM      29.61R
$$
MNZ071>073-080-081-089-090-097-098-221100-
   Southwest Minnesota

CITY           SKY/WX    TMP DP  RH WIND       PRES   REMARKS
MONTEVIDEO     FOG       34  34 100 N6        29.65R VSB 1/2 WCI  29
GRANITE FALLS  FOG       34  34 100 W7        29.65R VSB 3/4 WCI  28
CANBY          CLOUDY    34  34  99 CALM      29.65R
MARSHALL       CLOUDY    33  33 100 NW10      29.63S FOG     WCI  25
REDWOOD FALLS  FOG       34  32  92 NW6       29.62R VSB 1/2 WCI  29
OLIVIA         FOG       34  34 100 NW5       29.62R VSB 1/2 WCI  30
PIPESTONE      CLOUDY    34  32  93 N10       29.61S FOG     WCI  26
WINDOM         CLOUDY    34  34 100 NW7       29.60R FOG     WCI  28
WORTHINGTON    CLOUDY    32  31  96 NW9       29.61R WCI  24
JACKSON        FOG       32  32 100 NW9       29.60R VSB 3/4 WCI  24
TRACY          FOG       34  34 100 NW9       29.62R VSB 3/4 WCI  27
SLAYTON        CLOUDY    32  32 100 NW9       29.61R FOG     WCI  24
$$
MNZ065>067-074>077-082>085-091>093-221100-
   South Central Minnesota

CITY           SKY/WX    TMP DP  RH WIND       PRES   REMARKS
MANKATO        FOG       34  33  96 NW5       29.60R VSB 1/4 WCI  30
NEW ULM        FOG       34  34 100 NW5       29.61R VSB 3/4 WCI  30
ST JAMES       FOG       34  34 100 NW9       29.61R VSB 1   WCI  26
FAIRMONT       FOG       34  34 100 NW10      29.60R VSB 3/4 WCI  26
GLENCOE        FOG       35  35 100 W3        29.60R VSB 1/2
OWATONNA       FOG       34  32  93 CALM      29.58S VSB<1/4
WASECA         FOG       32  32 100 CALM      29.60R VSB 1/4
ALBERT LEA     FOG       34  34 100 NW3       29.58R VSB 1/4
$$
MNZ078>079-086>088-094>096-221100-
   Southeast Minnesota

CITY           SKY/WX    TMP DP  RH WIND       PRES   REMARKS
ROCHESTER      FOG       33  33 100 W7        29.57R VSB 1/2 WCI  27
RED WING       FOG       36  34  93 CALM      29.58R VSB 1/2
STANTON        FOG       34  33  95 NW3       29.57S VSB 1/2
DODGE CENTER   FOG       32  32 100 CALM      29.57R VSB 1/2
WINONA         CLOUDY    34  34 100 NW3       29.59R FOG
AUSTIN         FOG       34  32  93 CALM      29.58R VSB 1/4
PRESTON        CLOUDY    32  32  99 CALM      29.58R FOG
$$
ABBREVIATIONS USED IN REMARKS
   TC - TEMPERATURES IN CELSIUS
  WCI - WIND CHILL INDEX
   HX - HEAT INDEX
  VSB - VISIBILITY
$$




USA.gov is the U.S. government's official web portal to all federal, state and local government web resources and services.